SWA434 KCMH-KMDW

Flight info

Callsign SWA434
Flight time 0h 51m
Altitude 32000
Route PKACZ TARRY ROD FWA PANGG7
Aircraft B38M/M-SDE1FGHILORVWXY/HB1

Departure

Time 2026-05-09 02:11
Airport John Glenn Columbus International Airport (KCMH)

Arrival

Time 2026-05-09 03:02
Airport Chicago Midway International Airport (KMDW)
Time Latitude Longitude Altitude Speed Heading
2026-05-09 01:42 39.99653 -82.88549 823 ft 0 kts 28°
2026-05-09 02:03 39.99647 -82.88554 823 ft 3 kts 28°
2026-05-09 02:03 39.99629 -82.88566 820 ft 2 kts 27°
2026-05-09 02:03 39.99613 -82.88578 821 ft 3 kts 44°
2026-05-09 02:04 39.99602 -82.88599 822 ft 3 kts 70°
2026-05-09 02:04 39.99598 -82.88623 817 ft 2 kts 91°
2026-05-09 02:04 39.99598 -82.88631 817 ft 1 kts 94°
2026-05-09 02:06 39.99598 -82.88629 817 ft 1 kts 94°
2026-05-09 02:06 39.99597 -82.88599 817 ft 7 kts 93°
2026-05-09 02:06 39.99592 -82.88512 822 ft 11 kts 93°
2026-05-09 02:07 39.99614 -82.88274 818 ft 15 kts 73°
2026-05-09 02:07 39.99607 -82.88138 822 ft 15 kts 97°
2026-05-09 02:07 39.99602 -82.87994 824 ft 17 kts 94°
2026-05-09 02:07 39.99590 -82.87809 827 ft 24 kts 95°
2026-05-09 02:08 39.99568 -82.87604 825 ft 23 kts 97°
2026-05-09 02:08 39.99553 -82.87390 826 ft 19 kts 94°
2026-05-09 02:08 39.99484 -82.87288 824 ft 14 kts 188°
2026-05-09 02:08 39.99476 -82.87289 822 ft 0 kts 187°
2026-05-09 02:09 39.99463 -82.87292 824 ft 5 kts 187°
2026-05-09 02:09 39.99389 -82.87307 824 ft 16 kts 191°
2026-05-09 02:10 39.99266 -82.87326 822 ft 19 kts 182°
2026-05-09 02:10 39.99165 -82.87374 822 ft 12 kts 258°
2026-05-09 02:10 39.99164 -82.87389 822 ft 0 kts 267°
2026-05-09 02:10 39.99175 -82.87549 820 ft 54 kts 274°
2026-05-09 02:11 39.99223 -82.88425 825 ft 136 kts 274°
2026-05-09 02:11 39.99350 -82.89914 1037 ft 184 kts 276°
2026-05-09 02:11 39.99432 -82.91618 1933 ft 185 kts 273°
2026-05-09 02:11 39.99509 -82.93257 2885 ft 186 kts 272°
2026-05-09 02:12 39.99617 -82.95040 3084 ft 207 kts 272°
2026-05-09 02:12 39.99741 -82.96998 3245 ft 228 kts 272°
2026-05-09 02:12 39.99875 -82.99098 3694 ft 233 kts 272°
2026-05-09 02:12 40.00024 -83.01194 4355 ft 233 kts 272°
2026-05-09 02:13 40.00147 -83.03367 4630 ft 248 kts 268°
2026-05-09 02:13 40.00186 -83.05651 5044 ft 252 kts 269°
2026-05-09 02:13 40.00232 -83.07934 5608 ft 253 kts 269°
2026-05-09 02:13 40.00282 -83.10225 6160 ft 252 kts 268°
2026-05-09 02:14 40.00333 -83.12498 7042 ft 249 kts 269°
2026-05-09 02:14 40.00386 -83.14758 7962 ft 250 kts 270°
2026-05-09 02:14 40.00439 -83.17020 8884 ft 249 kts 270°
2026-05-09 02:14 40.00492 -83.19271 9806 ft 249 kts 270°
2026-05-09 02:15 40.00545 -83.21551 10445 ft 258 kts 271°
2026-05-09 02:15 40.00602 -83.23982 10755 ft 278 kts 271°
2026-05-09 02:15 40.00663 -83.26599 11021 ft 299 kts 271°
2026-05-09 02:15 40.00727 -83.29376 11403 ft 313 kts 272°
2026-05-09 02:16 40.00792 -83.32243 12060 ft 318 kts 272°
2026-05-09 02:16 40.00836 -83.34203 12569 ft 321 kts 272°
2026-05-09 02:16 40.00900 -83.37129 13301 ft 326 kts 272°
2026-05-09 02:16 40.00965 -83.40100 14027 ft 330 kts 273°
2026-05-09 02:17 40.01030 -83.43106 14735 ft 333 kts 272°
2026-05-09 02:17 40.01095 -83.46135 15522 ft 335 kts 272°
2026-05-09 02:17 40.01160 -83.49185 16199 ft 338 kts 272°
2026-05-09 02:17 40.01224 -83.52263 16848 ft 341 kts 272°
2026-05-09 02:18 40.01289 -83.55325 17534 ft 343 kts 271°
2026-05-09 02:18 40.01399 -83.58482 18228 ft 346 kts 277°
2026-05-09 02:18 40.01832 -83.61580 18788 ft 349 kts 278°
2026-05-09 02:18 40.02232 -83.64709 19405 ft 350 kts 278°
2026-05-09 02:19 40.02620 -83.67850 19999 ft 351 kts 278°
2026-05-09 02:19 40.03000 -83.71004 20569 ft 353 kts 278°
2026-05-09 02:19 40.03378 -83.74176 21120 ft 355 kts 278°
2026-05-09 02:19 40.03756 -83.77365 21690 ft 356 kts 278°
2026-05-09 02:20 40.04135 -83.80572 22240 ft 358 kts 278°
2026-05-09 02:20 40.04511 -83.83749 22777 ft 360 kts 278°
2026-05-09 02:20 40.04981 -83.86970 23321 ft 363 kts 285°
2026-05-09 02:20 40.06129 -83.89926 23836 ft 372 kts 302°
2026-05-09 02:21 40.07998 -83.92321 24341 ft 385 kts 318°
2026-05-09 02:21 40.10400 -83.93989 24849 ft 398 kts 329°
2026-05-09 02:21 40.12944 -83.95452 25221 ft 401 kts 328°
2026-05-09 02:21 40.15503 -83.96916 25649 ft 403 kts 328°
2026-05-09 02:22 40.18085 -83.98370 26062 ft 406 kts 328°
2026-05-09 02:22 40.20692 -83.99824 26460 ft 408 kts 328°
2026-05-09 02:22 40.23315 -84.01279 26850 ft 411 kts 328°
2026-05-09 02:22 40.25949 -84.02738 27239 ft 413 kts 328°
2026-05-09 02:23 40.28423 -84.04535 27546 ft 400 kts 314°
2026-05-09 02:23 40.30338 -84.07107 27857 ft 393 kts 304°
2026-05-09 02:23 40.32109 -84.09857 28153 ft 397 kts 304°
2026-05-09 02:23 40.33870 -84.12649 28564 ft 398 kts 303°
2026-05-09 02:24 40.35626 -84.15471 28899 ft 400 kts 303°
2026-05-09 02:24 40.37378 -84.18315 29254 ft 402 kts 303°
2026-05-09 02:24 40.39133 -84.21180 29603 ft 404 kts 303°
2026-05-09 02:24 40.40894 -84.24062 29894 ft 405 kts 302°
2026-05-09 02:25 40.42651 -84.26938 29905 ft 403 kts 302°
2026-05-09 02:25 40.46145 -84.32669 29896 ft 403 kts 302°
2026-05-09 02:26 40.49650 -84.38423 29886 ft 403 kts 302°
2026-05-09 02:26 40.53152 -84.44184 29884 ft 403 kts 302°
2026-05-09 02:27 40.56645 -84.49944 29883 ft 403 kts 302°
2026-05-09 02:27 40.60137 -84.55713 29883 ft 403 kts 302°
2026-05-09 02:28 40.63627 -84.61491 29877 ft 403 kts 302°
2026-05-09 02:28 40.67117 -84.67274 29878 ft 403 kts 302°
2026-05-09 02:29 40.70613 -84.73080 29882 ft 405 kts 302°
2026-05-09 02:29 40.74111 -84.78899 29879 ft 405 kts 302°
2026-05-09 02:30 40.77600 -84.84718 29875 ft 405 kts 302°
2026-05-09 02:30 40.81091 -84.90552 29896 ft 404 kts 302°
2026-05-09 02:31 40.84574 -84.96381 29879 ft 404 kts 302°
2026-05-09 02:31 40.88053 -85.02213 29877 ft 404 kts 302°
2026-05-09 02:32 40.91532 -85.08055 29876 ft 405 kts 302°
2026-05-09 02:32 40.95012 -85.13911 29878 ft 405 kts 302°
2026-05-09 02:33 40.98880 -85.19382 29867 ft 421 kts 319°
2026-05-09 02:33 41.03913 -85.23443 29932 ft 424 kts 320°
2026-05-09 02:34 41.08971 -85.27493 29874 ft 424 kts 320°
2026-05-09 02:34 41.14043 -85.31504 29828 ft 424 kts 320°
2026-05-09 02:34 41.16543 -85.33473 29343 ft 413 kts 320°
2026-05-09 02:35 41.18988 -85.35406 28938 ft 403 kts 320°
2026-05-09 02:35 41.21363 -85.37291 28661 ft 409 kts 320°
2026-05-09 02:35 41.23878 -85.39286 28015 ft 419 kts 321°
2026-05-09 02:35 41.26391 -85.41278 27500 ft 421 kts 321°
2026-05-09 02:36 41.28900 -85.43269 26900 ft 419 kts 321°
2026-05-09 02:36 41.31398 -85.45251 26304 ft 416 kts 321°
2026-05-09 02:36 41.33838 -85.47191 25731 ft 413 kts 321°
2026-05-09 02:36 41.36323 -85.49167 25153 ft 409 kts 322°
2026-05-09 02:37 41.38745 -85.51096 24579 ft 403 kts 322°
2026-05-09 02:37 41.41142 -85.53006 24022 ft 400 kts 322°
2026-05-09 02:37 41.43488 -85.54878 23472 ft 396 kts 322°
2026-05-09 02:37 41.45840 -85.56755 22815 ft 392 kts 322°
2026-05-09 02:38 41.48140 -85.58724 22182 ft 381 kts 315°
2026-05-09 02:38 41.49847 -85.61262 21540 ft 360 kts 297°
2026-05-09 02:38 41.50830 -85.64252 21128 ft 350 kts 283°
2026-05-09 02:38 41.51277 -85.67446 20647 ft 359 kts 277°
2026-05-09 02:39 41.51559 -85.70813 20187 ft 363 kts 275°
2026-05-09 02:39 41.51745 -85.74146 19920 ft 366 kts 274°
2026-05-09 02:39 41.51878 -85.77533 19668 ft 366 kts 272°
2026-05-09 02:39 41.51980 -85.80920 19420 ft 366 kts 272°
2026-05-09 02:40 41.52068 -85.84350 19176 ft 365 kts 272°
2026-05-09 02:40 41.52142 -85.87737 18906 ft 365 kts 272°
2026-05-09 02:40 41.52208 -85.91065 18552 ft 363 kts 272°
2026-05-09 02:40 41.52272 -85.94427 18197 ft 363 kts 272°
2026-05-09 02:41 41.52334 -85.97787 17784 ft 362 kts 272°
2026-05-09 02:41 41.52395 -86.01135 17350 ft 360 kts 272°
2026-05-09 02:41 41.52456 -86.04466 16910 ft 358 kts 272°
2026-05-09 02:41 41.52487 -86.07786 16543 ft 357 kts 270°
2026-05-09 02:42 41.52470 -86.11096 16298 ft 356 kts 270°
2026-05-09 02:42 41.52456 -86.14406 16054 ft 356 kts 270°
2026-05-09 02:42 41.52444 -86.17703 15817 ft 355 kts 270°
2026-05-09 02:42 41.52432 -86.20997 15581 ft 354 kts 270°
2026-05-09 02:43 41.52420 -86.24279 15353 ft 354 kts 270°
2026-05-09 02:43 41.52406 -86.27561 15131 ft 353 kts 270°
2026-05-09 02:43 41.52390 -86.30827 14924 ft 352 kts 270°
2026-05-09 02:43 41.52374 -86.34093 14711 ft 352 kts 270°
2026-05-09 02:44 41.52358 -86.37347 14502 ft 351 kts 270°
2026-05-09 02:44 41.52340 -86.40597 14298 ft 350 kts 270°
2026-05-09 02:44 41.52318 -86.43841 14097 ft 349 kts 270°
2026-05-09 02:44 41.52295 -86.47083 13901 ft 349 kts 270°
2026-05-09 02:45 41.52273 -86.50314 13707 ft 348 kts 270°
2026-05-09 02:45 41.52250 -86.53538 13499 ft 348 kts 270°
2026-05-09 02:45 41.52225 -86.56764 13284 ft 347 kts 270°
2026-05-09 02:45 41.52200 -86.59984 13075 ft 347 kts 270°
2026-05-09 02:46 41.52173 -86.63208 12870 ft 347 kts 270°
2026-05-09 02:46 41.52145 -86.66416 12529 ft 344 kts 270°
2026-05-09 02:46 41.52117 -86.69577 12032 ft 335 kts 270°
2026-05-09 02:46 41.52090 -86.72634 11559 ft 327 kts 270°
2026-05-09 02:47 41.52062 -86.75657 11092 ft 325 kts 271°
2026-05-09 02:47 41.52034 -86.78669 10625 ft 324 kts 271°
2026-05-09 02:47 41.52005 -86.81672 10167 ft 323 kts 271°
2026-05-09 02:47 41.51976 -86.84658 9709 ft 322 kts 271°
2026-05-09 02:48 41.51946 -86.87639 9192 ft 321 kts 271°
2026-05-09 02:48 41.51915 -86.90610 8699 ft 320 kts 270°
2026-05-09 02:48 41.51882 -86.93539 8357 ft 310 kts 270°
2026-05-09 02:48 41.51849 -86.96400 8050 ft 307 kts 270°
2026-05-09 02:49 41.51816 -86.99229 7733 ft 303 kts 270°
2026-05-09 02:49 41.51783 -87.02027 7422 ft 301 kts 270°
2026-05-09 02:49 41.51750 -87.04813 7036 ft 300 kts 270°
2026-05-09 02:49 41.51717 -87.07601 6613 ft 301 kts 270°
2026-05-09 02:50 41.51683 -87.10388 6189 ft 301 kts 271°
2026-05-09 02:50 41.51648 -87.13182 5738 ft 302 kts 270°
2026-05-09 02:50 41.51630 -87.15969 5363 ft 298 kts 274°
2026-05-09 02:50 41.51797 -87.18711 4997 ft 296 kts 276°
2026-05-09 02:51 41.51964 -87.21433 4626 ft 294 kts 276°
2026-05-09 02:51 41.52119 -87.24125 4382 ft 288 kts 276°
2026-05-09 02:51 41.52266 -87.26787 4247 ft 288 kts 275°
2026-05-09 02:51 41.52409 -87.29448 4123 ft 288 kts 275°
2026-05-09 02:52 41.52551 -87.32113 4016 ft 288 kts 275°
2026-05-09 02:52 41.52694 -87.34778 3982 ft 287 kts 275°
2026-05-09 02:52 41.52834 -87.37430 3977 ft 287 kts 275°
2026-05-09 02:52 41.52975 -87.40088 3978 ft 287 kts 275°
2026-05-09 02:53 41.53115 -87.42748 3999 ft 287 kts 275°
2026-05-09 02:53 41.53253 -87.45395 3984 ft 286 kts 275°
2026-05-09 02:53 41.53390 -87.48038 3997 ft 287 kts 275°
2026-05-09 02:53 41.53527 -87.50686 4074 ft 280 kts 275°
2026-05-09 02:54 41.53657 -87.53206 4359 ft 268 kts 275°
2026-05-09 02:54 41.53783 -87.55684 4840 ft 269 kts 275°
2026-05-09 02:54 41.53911 -87.58185 5065 ft 270 kts 275°
2026-05-09 02:54 41.54050 -87.60684 5282 ft 270 kts 279°
2026-05-09 02:55 41.54650 -87.62979 5469 ft 253 kts 302°
2026-05-09 02:55 41.55647 -87.64813 5687 ft 240 kts 304°
2026-05-09 02:55 41.56397 -87.66788 5890 ft 238 kts 294°
2026-05-09 02:55 41.57069 -87.68808 6070 ft 238 kts 295°
2026-05-09 02:56 41.57753 -87.70819 6067 ft 238 kts 295°
2026-05-09 02:56 41.58444 -87.72824 5947 ft 237 kts 295°
2026-05-09 02:56 41.59139 -87.74824 5763 ft 238 kts 295°
2026-05-09 02:56 41.59837 -87.76819 5420 ft 235 kts 295°
2026-05-09 02:57 41.60513 -87.78744 5151 ft 222 kts 295°
2026-05-09 02:57 41.61153 -87.80563 4803 ft 212 kts 295°
2026-05-09 02:57 41.61767 -87.82307 4594 ft 204 kts 295°
2026-05-09 02:57 41.62369 -87.84016 4481 ft 203 kts 295°
2026-05-09 02:58 41.62974 -87.85730 4375 ft 204 kts 295°
2026-05-09 02:58 41.63377 -87.86869 4329 ft 204 kts 295°
2026-05-09 02:58 41.63994 -87.88488 4205 ft 187 kts 307°
2026-05-09 02:58 41.65015 -87.89495 4047 ft 187 kts 340°
2026-05-09 02:59 41.66315 -87.89537 3739 ft 193 kts 15°
2026-05-09 02:59 41.67533 -87.88746 3451 ft 197 kts 31°
2026-05-09 02:59 41.68633 -87.87661 3168 ft 194 kts 39°
2026-05-09 02:59 41.69606 -87.86481 2895 ft 184 kts 42°
2026-05-09 03:00 41.70532 -87.85311 2684 ft 183 kts 42°
2026-05-09 03:00 41.71467 -87.84128 2423 ft 186 kts 42°
2026-05-09 03:00 41.72399 -87.82946 2156 ft 182 kts 43°
2026-05-09 03:00 41.73313 -87.81788 1893 ft 180 kts 43°
2026-05-09 03:01 41.74223 -87.80635 1690 ft 180 kts 43°
2026-05-09 03:01 41.75133 -87.79485 1450 ft 179 kts 44°
2026-05-09 03:01 41.76010 -87.78370 1203 ft 168 kts 46°
2026-05-09 03:01 41.76831 -87.77320 1002 ft 156 kts 46°
2026-05-09 03:02 41.77586 -87.76340 734 ft 148 kts 45°
2026-05-09 03:02 41.78272 -87.75463 634 ft 99 kts 41°
2026-05-09 03:02 41.78582 -87.75084 633 ft 36 kts 44°
2026-05-09 03:02 41.78641 -87.75002 632 ft 1 kts 76°
2026-05-09 03:03 41.78627 -87.74964 638 ft 9 kts 128°
2026-05-09 03:03 41.78598 -87.74921 631 ft 0 kts 134°
2026-05-09 03:04 41.78597 -87.74920 631 ft 1 kts 134°
2026-05-09 03:04 41.78593 -87.74885 631 ft 8 kts 70°
2026-05-09 03:04 41.78627 -87.74802 631 ft 1 kts 96°
2026-05-09 03:05 41.78619 -87.74790 631 ft 5 kts 139°
2026-05-09 03:05 41.78578 -87.74742 634 ft 9 kts 134°
2026-05-09 03:05 41.78527 -87.74672 631 ft 12 kts 131°
2026-05-09 03:05 41.78540 -87.74580 634 ft 11 kts 22°
2026-05-09 03:06 41.78571 -87.74575 634 ft 0 kts
2026-05-09 03:06 41.78586 -87.74572 639 ft 4 kts
2026-05-09 03:06 41.78590 -87.74572 631 ft 0 kts